Location: *
(49.5667°N, 1.3667°W)
Time: 06:51:41
(UTC+00:00)

Cosmos 405 Rocket - Pass Details

Date: 20 September 2019
Orbit: 491 x 554 km, 81.3° (Epoch: 15 October)

Event Time Altitude Azimuth Distance (km) Brightness Sun altitude
Rises 18:57:42 0° 157° (SSE) 2,558 5.9 -8.7°
Reaches altitude 10° 19:00:07 10° 142° (SE) 1,683 4.8 -9.1°
Maximum altitude 19:02:59 22° 90° (E) 1,131 3.8 -9.6°
Drops below altitude 10° 19:05:53 10° 39° (NE) 1,706 5.1 -10.0°
Sets 19:08:21 0° 24° (NNE) 2,603 6.2 -10.4°
